Roseburg, OR

10:03 AM PDT on September 15, 2019 (GMT -0700)
Roseburg Regional

Weather History for KRBG - July, 2019

Change the Weather History Date:

Tuesday, July 30, 2019

  Actual Average Record
Temperature  
Mean Temperature 70 °F -  
Max Temperature 80 °F - 108 °F (2015)
Min Temperature 59 °F - 43 °F (1956)
Cooling Degree Days 5    
Month to date cooling degree days 189  
Year to date cooling degree days 340  
Since 1 June cooling degree days 311  
Growing Degree Days 19 (Base 50)    
Moisture  
Dew Point 52 °F    
Average Humidity 55    
Maximum Humidity 75    
Minimum Humidity 35    
Precipitation  
Precipitation 0.00 in - 0.26 in (2001)
Month to date precipitation 0.02  
Year to date precipitation 21.69  
Sea Level Pressure  
Sea Level Pressure 30.03 in    
Wind  
Wind Speed 5 mph (North)    
Max Wind Speed 14 mph    
Max Gust Speed 18 mph    
Visibility 10 miles    
Events      
T = Trace of Precipitation, MM = Missing Value Source: NWS Daily Summary

Daily Weather History Graph

Daily Weather History Graph

Search for Another Location

Airport or City:

Astronomy

Jul. 30, 2019 Rise Set
Actual Time 6:01 AM PDT 8:37 PM PDT
Civil Twilight 5:28 AM PDT 9:10 PM PDT
Nautical Twilight 4:47 AM PDT 9:50 PM PDT
Astronomical Twilight 4:01 AM PDT 10:37 PM PDT
Moon 4:13 AM PDT (7/30) 7:49 PM PDT (7/30)
Length of Visible Light 15h 41m
Length of Day
14h 36m
Waning Crescent, 3% of the Moon is Illuminated
Jul 30
Waning Crescent
Jul 31
New
Aug 7
First Quarter
Aug 15
Full
Aug 23
Last Quarter

Hourly Weather History & Observations

Time (PDT) Temp. Dew Point Humidity Pressure Visibility Wind Dir Wind Speed Gust Speed Precip Events Conditions
12:53 AM 62.1 °F 53.1 °F 72% 30.04 in 10.0 mi NNE 3.5 mph - N/A   Clear
1:53 AM 61.0 °F 52.0 °F 72% 30.04 in 10.0 mi Calm Calm - N/A   Clear
2:53 AM 59.0 °F 51.1 °F 75% 30.04 in 10.0 mi Calm Calm - N/A   Mostly Cloudy
3:53 AM 60.1 °F 51.1 °F 72% 30.04 in 10.0 mi North 3.5 mph - N/A   Overcast
4:53 AM 60.1 °F 52.0 °F 75% 30.04 in 10.0 mi North 4.6 mph - N/A   Overcast
5:53 AM 60.1 °F 51.1 °F 72% 30.04 in 10.0 mi North 4.6 mph - N/A   Overcast
6:53 AM 61.0 °F 51.1 °F 70% 30.05 in 10.0 mi North 3.5 mph - N/A   Overcast
7:53 AM 61.0 °F 51.1 °F 70% 30.06 in 10.0 mi NNW 3.5 mph - N/A   Overcast
8:53 AM 62.1 °F 52.0 °F 70% 30.06 in 10.0 mi NNW 4.6 mph - N/A   Overcast
9:53 AM 63.0 °F 52.0 °F 67% 30.06 in 10.0 mi NNW 5.8 mph - N/A   Overcast
10:53 AM 64.0 °F 52.0 °F 65% 30.06 in 10.0 mi NNW 5.8 mph - N/A   Overcast
11:53 AM 66.0 °F 52.0 °F 60% 30.06 in 10.0 mi Variable 3.5 mph - N/A   Overcast
12:53 PM 68.0 °F 53.1 °F 59% 30.05 in 10.0 mi North - - N/A   Overcast
1:40 PM 71.1 °F 53.1 °F 53% 30.05 in 10.0 mi NNE 10.4 mph - N/A   Partly Cloudy
1:53 PM 71.1 °F 53.1 °F 53% 30.04 in 10.0 mi North 8.1 mph - N/A   Partly Cloudy
2:53 PM 73.9 °F 54.0 °F 50% 30.02 in 10.0 mi NNE 12.7 mph 17.3 mph N/A   Clear
3:53 PM 77.0 °F 52.0 °F 42% 30.00 in 10.0 mi North 8.1 mph - N/A   Clear
4:53 PM 78.1 °F 52.0 °F 40% 29.99 in 10.0 mi North 12.7 mph - N/A   Clear
5:53 PM 79.0 °F 48.9 °F 35% 29.98 in 10.0 mi North 11.5 mph - N/A   Clear
6:53 PM 79.0 °F 52.0 °F 39% 29.97 in 10.0 mi North 9.2 mph - N/A   Clear
7:53 PM 78.1 °F 48.9 °F 36% 29.98 in 10.0 mi North 4.6 mph - N/A   Clear
8:53 PM 73.0 °F 53.1 °F 49% 29.99 in 10.0 mi North 3.5 mph - N/A   Clear
9:53 PM 72.0 °F 53.1 °F 51% 30.01 in 10.0 mi North 4.6 mph - N/A   Clear
10:53 PM 68.0 °F 53.1 °F 59% 30.02 in 10.0 mi NNE 4.6 mph - N/A   Clear
11:53 PM 66.0 °F 53.1 °F 63% 30.03 in 10.0 mi North 3.5 mph - N/A   Clear